カタログに戻る

STARLINK-35230

運用中通信VLEO
NORAD 65681·PAYLOAD·🇺🇸 United States

打ち上げ Sep 21, 2025 から Cape Canaveral Space Force Station

Loading…

次のパス (今後24時間)

TLE

最新Source: CelesTrak SupGP

元期: Sep 14, 2026, 20:54 UTC

1 65681C 25212F   26257.87131944  .00013778  00000+0  40699-3 0  2570
2 65681  53.1570 183.8559 0001224  91.8098 197.9003 15.34389735    10

AllMySatでSTARLINK-35230をリアルタイム追跡

Download on the App Store